TIME,DELAY(SENSOR),PRES,T(CTD),SAL,OXYGEN,RAWTEMP,T(OPTODE),TCPHASE,FLUOR,BETA(BETA700),BETA(BETA412),BETA(BETA440),CDOM,C(CSC),ED(ED411.90),ED(ED443.80),ED(ED489.40),ED(ED554.70),LU(LU412.20),LU(LU443.80),LU(LU489.40),LU(LU555.00),COMP,TILTX,TILTX(TILTY),CHECK
1354203924,5806,497.1099853515625000,17.2427997589111330,36.4196014404296900,229.9835052490234400,180.5962982177734400,17.2333507537841800,31.3217601776123050,50,98,56,54,53,13293,2146955904,2147512429,2147267977,2147463488,2147084480,2146955145,2147658249,2147122880,355,-2,8,26103
1354204045,5806,485.6400146484375000,17.3321990966796880,36.4379005432128900,232.0798034667968800,176.9981994628906200,17.3418807983398440,31.1689605712890620,50,98,56,56,53,13297,2146957805,2147512685,2147270930,2147461540,2147084406,2146958592,2147656539,2147120658,2402,-2,8,61207
1354204158,5806,474.9899902343750000,17.4134006500244140,36.4528007507324200,233.4774932861328000,174.7953948974609400,17.4083309173584000,31.0708503723144530,50,97,55,56,53,13296,2146960201,2147514249,2147269778,2147463442,2147086226,2146958390,2147651081,2147121133,1337,-2,8,28304
1354204279,5806,463.7600097656250000,17.5060997009277340,36.4704017639160160,234.3670959472656200,171.7256011962890600,17.5009403228759770,30.9858894348144530,50,99,55,56,53,13296,2146959890,2147516854,2147265563,2147462848,2147084800,2146954084,2147656941,2147121737,3296,-1,8,43026
1354204389,5805,453.6600036621094000,17.5874004364013670,36.4854011535644500,235.0688018798828000,169.1035003662109400,17.5800590515136720,30.9165096282959000,50,98,56,55,53,13296,2146958738,2147514413,2147268562,2147462034,2147087881,2146956041,2147657060,2147122029,2360,-1,8,60705
1354204512,5805,442.7099914550781000,17.6480007171630860,36.4952011108398440,235.4136962890625000,167.0832061767578000,17.6410293579101560,30.8725109100341800,51,99,56,55,53,13295,2146959341,2147514861,2147267392,2147461796,2147083821,2146958893,2147652982,2147125339,1070,-1,8,21924
1354204644,5806,431.1300048828125000,17.7278003692626950,36.5093994140625000,235.7608947753906200,164.1273956298828000,17.7302398681640620,30.8162002563476560,50,98,55,56,53,13292,2146956955,2147513609,2147266422,2147463003,2147085750,2146963995,2147653650,2147128155,3105,-1,9,30652
1354204768,5802,420.2099914550781000,17.7950992584228500,36.5192985534668000,236.0372924804687500,162.1739959716797000,17.7891998291015620,30.7768592834472660,50,98,55,55,53,13293,2146957568,2147514651,2147265014,2147461778,2147086454,2146959561,2147653147,2147121984,2486,-1,8,25982
1354204889,5803,409.5899963378906000,17.8271999359130860,36.5246009826660160,235.5619049072265600,161.0599975585937500,17.8228302001953120,30.7846794128417970,50,100,56,55,54,13292,2146955373,2147511405,2147263442,2147457737,2147083474,2146964544,2147655012,2147126912,1347,-1,8,43300
1354205021,5808,398.0799865722656000,17.8670005798339840,36.5290985107421900,235.1728057861328000,159.6641998291015600,17.8649692535400400,30.7846107482910160,50,99,56,54,53,13291,2146953206,2147517238,2147265051,2147460187,2147083821,2146962477,2147653595,2147126939,43,-2,8,47845
1354205144,5806,387.5299987792969000,17.9069004058837900,36.5355987548828100,234.5816040039062500,158.2926940917968800,17.9063796997070300,30.7947502136230470,50,98,55,55,53,13290,2146954532,2147513097,2147266560,2147462601,2147086336,2146958006,2147648100,2147128237,1814,-1,8,21553
1354205276,5806,376.4100036621094000,17.9869003295898440,36.5462989807128900,234.3099060058593800,155.8018951416015600,17.9815998077392580,30.7748298645019530,50,99,56,56,53,13290,2146956681,2147512914,2147266953,2147457481,2147084269,2146959277,2147653732,2147128457,378,-1,9,628
1354205411,5806,365.1600036621094000,18.0449008941650400,36.5530014038085940,233.7180938720703000,153.7082977294922000,18.0448303222656250,30.7753200531005860,50,98,55,56,53,13290,2146955346,2147515510,2147266797,2147458413,2147086409,2146958619,2147651766,2147128384,2931,-1,8,20322
1354205543,5801,354.2500000000000000,18.1187992095947270,36.5628013610839840,233.6999969482422000,151.4577026367187500,18.1128005981445300,30.7458992004394530,51,98,55,55,53,13291,2146957046,2147512073,2147265792,2147459648,2147086162,2146960987,2147652370,2147124425,2021,-1,8,50827
1354205678,5807,343.3099975585937500,18.1527004241943360,36.5662002563476560,233.4765014648437500,150.2953948974609400,18.1479091644287100,30.7413806915283200,50,98,54,55,52,13292,2146959195,2147514934,2147264576,2147460598,2147088667,2146959405,2147655049,2147128137,893,-2,8,43790
1354205810,5806,332.7099914550781000,18.2045993804931640,36.5719985961914060,233.2295989990234400,148.4998016357422000,18.2021598815917970,30.7292194366455080,50,98,55,55,53,13292,2146953371,2147514404,2147264941,2147456822,2147083465,2146957686,2147652443,2147127222,2686,-1,8,60661
1354205953,5804,321.2699890136719000,18.2721996307373050,36.5791015625000000,232.2322998046875000,146.3757019042968800,18.2663402557373050,30.7494907379150400,50,98,56,56,52,13290,2146955492,2147511661,2147265910,2147455625,2147082057,2146962294,2147655917,2147128338,1230,-1,9,7121
1354206087,5806,310.8200073242187500,18.3183002471923830,36.5829010009765600,231.4353942871093800,144.8650054931640600,18.3119907379150400,30.7682495117187500,50,97,56,56,54,13291,2146956873,2147516672,2147265152,2147450678,2147086272,2146961856,2147654354,2147126226,2905,-1,9,24850
1354206230,5805,299.6799926757812500,18.3689994812011720,36.5876998901367200,230.2745056152343800,143.1360931396484400,18.3642501831054700,30.8019790649414060,50,98,55,55,53,13292,2146958784,2147514550,2147264292,2147455305,2147086445,2146961920,2147654628,2147126317,1474,-2,8,65083
1354206376,5808,287.1499938964844000,18.4834995269775400,36.5984992980957000,228.1893005371093800,139.4277038574218800,18.4763507843017580,30.8556098937988280,51,97,55,55,54,13289,2146957604,2147514212,2147263241,2147454720,2147085531,2146963136,2147655204,2147129618,3528,-1,8,42413
1354206486,5806,276.2600097656250000,18.5736007690429700,36.6045989990234400,226.5653991699218800,136.4579010009765600,18.5661392211914060,30.8969898223876950,50,97,55,54,53,13289,2146956772,2147516873,2147262171,2147452141,2147086573,2146964452,2147657792,2147124507,2225,-1,8,31761
1354206596,5806,265.4899902343750000,18.6735992431640620,36.6080017089843750,225.6932067871093800,133.0144958496093800,18.6702804565429700,30.8946495056152340,51,98,57,56,53,13291,2146957577,2147512091,2147264758,2147455222,2147081115,2146963894,2147656036,2147133184,1095,-1,8,8284
1354206719,5805,253.8399963378906200,18.7787990570068360,36.6069984436035160,224.7944030761718800,129.1723937988281200,18.7865200042724600,30.8887290954589840,52,97,56,55,53,13290,2146957696,2147514541,2147265947,2147454756,2147084608,2146962861,2147658121,2147126838,2990,-1,8,48745
1354206840,5804,242.8200073242187500,18.8871002197265620,36.5847015380859400,228.9371948242187500,125.8771972656250000,18.8862304687500000,30.6379795074462900,50,99,55,55,53,13288,2146957732,2147512484,2147261476,2147453988,2147085604,2146965330,2147662162,2147128484,1983,-1,8,37232
1354206964,5800,231.9600067138672000,18.9699993133544920,36.5775985717773440,233.5157928466797000,123.0800018310546900,18.9708995819091800,30.3779392242431640,51,97,56,56,52,13289,2146954770,2147510582,2147263881,2147452196,2147078829,2146967350,2147662445,2147129462,1040,-1,8,16710
1354207085,5804,221.3999938964843800,19.0499000549316400,36.5746002197265600,236.7778930664062500,119.3237991333007800,19.0846290588378900,30.1728000640869140,50,98,55,55,52,13289,2146956790,2147513371,2147264749,2147454262,2147080877,2146975232,2147671168,2147130578,3118,-1,8,24495
1354207217,5806,209.8600006103515600,19.2689990997314450,36.5994987487793000,236.3556060791015600,113.3439025878906200,19.2657794952392580,30.1145000457763670,51,98,55,56,52,13290,2146954075,2147511232,2147264521,2147454491,2147078701,2146978514,2147677952,2147129654,1675,-2,9,11720
1354207340,5807,198.8399963378906200,19.3563995361328120,36.5946006774902340,239.1717987060547000,110.6074981689453100,19.3486995697021500,29.9461402893066400,53,99,55,55,52,13289,2146958125,2147512731,2147265993,2147451419,2147076571,2146985170,2147696201,2147130294,861,-1,8,48669
1354207395,5807,193.7599945068359400,19.3861007690429700,36.5961990356445300,240.4700012207031200,109.5290985107421900,19.3813896179199220,29.8718299865722660,52,97,55,56,52,13288,2146958070,2147514304,2147265234,2147448566,2147083602,2146991021,2147705280,2147129280,134,-2,8,28460
1354207450,5802,188.6699981689453000,19.4106998443603500,36.5923004150390600,240.8141021728515600,108.4192962646484400,19.4150295257568360,29.8414192199707030,52,97,56,54,52,13285,2146957430,2147517449,2147266194,2147451721,2147078208,2146998674,2147716114,2147134409,2964,-2,8,18734
1354207505,5805,183.6499938964843800,19.4582996368408200,36.5945014953613300,240.7781982421875000,106.7202987670898400,19.4665393829345700,29.8212203979492200,53,98,57,54,53,13283,2146954112,2147513261,2147267172,2147451730,2147082624,2147017142,2147759305,2147135661,2205,-2,8,59620
1354207560,5806,178.6000061035156200,19.5405006408691400,36.6035995483398440,240.4192047119140600,104.3536987304687500,19.5383090972900400,29.8069190979003900,55,100,56,56,51,13281,2146959259,2147513673,2147268946,2147451565,2147087524,2147025545,2147777298,2147136292,1527,-2,8,9416
1354207635,5808,172.0500030517578000,19.6189994812011720,36.6064987182617200,240.6562042236328000,101.3417968750000000,19.6296691894531250,29.7569007873535160,57,99,55,56,52,13278,2146959314,2147515190,2147266294,2147448978,2147089883,2147053129,2147845339,2147137956,795,-1,9,18603
1354207690,5807,167.6100006103515600,19.7063007354736330,36.6180992126464840,240.9076995849609400,98.9585037231445300,19.7019805908203120,29.7143802642822270,58,100,54,56,53,13280,2146958573,2147513801,2147273051,2147449929,2147094390,2147078171,2147886765,2147142976,557,-1,8,64735
1354207745,5808,163.3500061035156200,19.7614002227783200,36.6186981201171900,241.4069061279297000,96.8447113037109400,19.7661304473876950,29.6642208099365230,59,100,55,56,53,13278,2146956562,2147515446,2147271460,2147449170,2147097947,2147090477,2147907739,2147145700,322,-2,9,53941
1354207800,5805,159.1399993896484400,19.8479995727539060,36.6369018554687500,241.3874969482422000,93.6924667358398400,19.8618202209472660,29.6241893768310550,58,102,54,56,53,13275,2146956022,2147519716,2147269769,2147447232,2147100717,2147105974,2147935241,2147146998,108,-1,9,20776
1354207855,5803,155.0299987792968800,19.9979000091552730,36.6514015197753900,241.0641021728515600,89.0581436157226600,20.0025691986084000,29.5791606903076170,60,101,55,55,53,13277,2146955510,2147518217,2147271734,2147445549,2147103588,2147124278,2147958198,2147145883,353,-2,9,16345
1354207910,5808,151.1799926757812500,20.1326999664306640,36.6628990173339840,241.9476013183593800,85.5949172973632800,20.1077995300292970,29.4941291809082030,63,102,56,55,53,13274,2146956470,2147520009,2147275190,2147448694,2147107236,2147150262,2148006354,2147149522,36,-1,8,57603
1354207988,5804,146.5000000000000000,20.3309001922607420,36.6982994079589840,241.6867980957031200,78.6724166870117200,20.3182697296142580,29.4171600341796880,66,106,54,54,54,13273,2146957787,2147520969,2147276004,2147446153,2147120365,2147189732,2148066569,2147157110,3216,-2,9,45087
1354208076,5804,142.6999969482422000,20.4458999633789060,36.6939010620117200,242.9736938476562500,75.0466384887695300,20.4285793304443360,29.3119392395019530,65,102,56,56,52,13270,2146956544,2147522358,2147282075,2147446692,2147132297,2147237147,2148149211,2147160932,2586,-1,9,2178
1354208175,5805,139.1399993896484400,20.4815998077392580,36.6654014587402340,247.3928985595703000,73.3803405761718800,20.4792995452880860,29.0925598144531250,67,104,56,56,54,13264,2146958518,2147521133,2147280301,2147443958,2147139291,2147261942,2148190601,2147163126,2065,-2,8,4057
1354208299,5807,135.1600036621093800,20.7035999298095700,36.6902008056640600,250.5270996093750000,67.0678863525390600,20.6715106964111330,28.8745994567871100,69,104,56,56,52,13266,2146960210,2147521270,2147277458,2147445540,2147135222,2147212141,2148055414,2147153545,1830,-1,9,41472
1354208431,5808,131.1399993896484400,20.8040008544921880,36.6927986145019500,251.7649993896484400,63.0717391967773440,20.7932701110839840,28.7702503204345700,72,106,56,56,52,13264,2146961216,2147526061,2147282998,2147445238,2147169042,2147334756,2148270582,2147171538,1799,-2,9,65344
1354208563,5806,126.8099975585937500,20.9029006958007800,36.7014999389648440,251.9002990722656200,59.9564704895019500,20.8882408142089840,28.7248592376709000,75,107,55,55,53,13260,2146960685,2147526272,2147284836,2147442441,2147186093,2147377106,2148308653,2147176758,1777,-1,9,60418
1354208671,5807,122.4899978637695300,21.0121002197265620,36.7095985412597660,254.5930938720703000,56.2497482299804700,21.0013008117675780,28.5625801086425780,74,106,56,56,52,13256,2146964242,2147533385,2147298605,2147443520,2147245677,2147605577,2148686646,2147203136,1114,-2,9,42820
1354208759,5805,118.5800018310546900,21.0753002166748050,36.6977005004882800,255.7754974365234400,54.0569915771484400,21.0681991577148440,28.4848594665527340,75,110,55,55,52,13250,2146957348,2147525814,2147278573,2147441526,2147189449,2147328722,2148175122,2147167177,805,-2,9,13790
1354208858,5807,114.8000030517578100,21.2395992279052730,36.6977996826171900,254.6743011474609400,48.7953910827636700,21.2288398742675780,28.4656105041503900,83,110,56,56,52,13238,2146962011,2147526217,2147279387,2147442066,2147206518,2147350601,2148171648,2147166025,160,-2,8,65518
1354208982,5805,111.1600036621093800,21.3943996429443360,36.7070999145507800,252.3753967285156200,43.8203697204589840,21.3808307647705080,28.5016498565673830,89,112,57,57,53,13237,2146960768,2147526418,2147279369,2147440685,2147227913,2147384118,2148208822,2147171401,302,-2,9,17098
1354209136,5809,107.1100006103515600,21.5561008453369140,36.7061996459960940,250.3014984130859400,38.8431015014648440,21.5330200195312500,28.5286407470703120,96,124,56,57,52,13230,2146967369,2147531904,2147288941,2147437723,2147309897,2147577225,2148474404,2147193600,3565,-1,9,15023
1354209291,5807,102.8399963378906200,21.7187004089355470,36.7001991271972660,244.1280059814453000,33.0647811889648440,21.7098407745361330,28.7271003723144530,103,118,55,56,52,13219,2146980178,2147562011,2147344210,2147438692,2147627309,2148432201,2149752603,2147292352,2706,-2,9,3824
1354209401,5805,99.3399963378906200,21.9661998748779300,36.6782989501953100,242.5937957763672000,24.8573703765869140,21.9612808227539060,28.6924591064453120,107,123,56,56,51,13207,2146983104,2147572269,2147357668,2147438829,2147756553,2148669677,2150051913,2147325275,1522,-2,9,49239
1354209511,5805,97.8300018310546900,22.3019008636474600,36.6234016418457000,241.0834045410156200,15.0918397903442380,22.2609004974365230,28.6376991271972660,105,123,57,56,51,13204,2146972315,2147544210,2147307236,2147438400,2147492260,2147889371,2148811346,2147226349,2107,-2,9,38272
1354209744,5803,95.4000015258789000,22.5804996490478500,36.4878997802734400,241.5458068847656200,5.3980078697204590,22.5588302612304700,28.4956398010253900,95,124,56,56,51,13177,2146982372,2147557622,2147331437,2147435465,2147699328,2148309650,2149365750,2147273828,2289,-2,9,24675
1354209988,5806,93.9000015258789000,22.7339000701904300,36.4365997314453100,247.3061065673828000,-0.0005900859832764,22.7249794006347660,28.1741008758544920,82,122,55,55,51,13182,2146985636,2147561828,2147333888,2147434294,2147749714,2148358418,2149378340,2147276150,979,-2,9,22385
1354210199,5808,91.5100021362304700,22.7569999694824220,36.4333000183105500,248.0830993652343800,-0.8433312177658081,22.7509307861328120,28.1299304962158200,85,127,57,56,50,13175,2146989741,2147567798,2147339355,2147435456,2147899666,2148575277,2149582555,2147294838,3413,-1,9,53040
1354210254,5801,89.0400009155273400,22.7597999572753900,36.4304008483886700,248.4503021240234400,-0.9600698947906494,22.7545299530029300,28.1124992370605470,88,126,56,55,50,13165,2146998418,2147579172,2147351478,2147433444,2148053120,2148814052,2149835227,2147319634,129,-1,9,18940
1354210309,5803,86.3600006103515600,22.7478008270263670,36.4236984252929700,249.1165008544922000,-0.6343424916267395,22.7444992065429700,28.0878295898437500,88,126,57,57,51,13156,2147005860,2147590125,2147366848,2147435136,2148251858,2149141376,2150193572,2147355565,331,-2,9,27997
1354210364,5807,83.7500000000000000,22.7458992004394530,36.4216995239257800,249.6876068115234400,-0.5849719047546387,22.7429790496826170,28.0637207031250000,88,128,57,56,51,13157,2147012160,2147598628,2147379437,2147436077,2148435099,2149426422,2150503286,2147383533,199,-2,9,7191
1354210419,5808,81.2200012207031200,22.7497997283935550,36.4193992614746100,249.9873046875000000,-0.6830245852470398,22.7459907531738280,28.0498294830322270,90,128,57,57,51,13156,2147069110,2147699099,2147535552,2147444004,2149766646,2152064502,2153937581,2147686171,3538,-2,9,16856
1354210474,5804,78.6800003051757800,22.7385005950927730,36.4147987365722660,250.2041015625000000,-0.3934890031814575,22.7370796203613280,28.0439796447753900,86,132,56,57,51,13148,2147020434,2147607085,2147389458,2147437019,2148640100,2149668726,2150709906,2147408329,3482,-1,9,38143
1354210531,5805,75.9300003051757800,22.7381000518798830,36.4129981994628900,250.3352050781250000,-0.3733277022838593,22.7364597320556640,28.0387401580810550,88,134,58,57,51,13142,2147026898,2147613074,2147397138,2147435922,2148779913,2149817033,2150821970,2147422628,3253,-2,9,23697
1354210586,5803,73.2500000000000000,22.7402000427246100,36.4082984924316400,250.6643066406250000,-0.3739177882671356,22.7364807128906250,28.0245094299316400,87,135,57,56,50,13139,2147036278,2147624585,2147411227,2147437878,2149017316,2150149376,2151162130,2147462043,3125,-2,9,49981
1354210641,5806,70.6999969482421900,22.7392997741699220,36.4049987792968750,250.7884979248047000,-0.3913254141807556,22.7370090484619140,28.0190296173095700,88,136,57,57,50,13127,2147048155,2147645065,2147432310,2147438838,2149335606,2150600685,2151642194,2147510692,2820,-2,9,62438
1354210696,5807,68.2399978637695300,22.7446002960205080,36.4029006958007800,250.9947967529297000,-0.5356013774871826,22.7414608001709000,28.0082798004150400,89,146,56,57,50,13131,2147064877,2147666541,2147460306,2147442038,2149752457,2151213906,2152282541,2147587309,2714,-2,9,41442
1354210751,5806,65.9000015258789000,22.7471008300781250,36.4009017944335940,250.9629974365234400,-0.6143779158592224,22.7438793182373050,28.0089092254638670,90,136,59,57,50,13127,2147084854,2147693010,2147490340,2147445577,2150216576,2151874962,2152969947,2147665545,2571,-2,9,3158
1354210806,5805,63.5600013732910160,22.7518997192382800,36.3973007202148440,251.0334014892578000,-0.7008255124092102,22.7465400695800780,28.0046901702880860,86,143,57,57,50,13130,2147108617,2147722614,2147528118,2147448045,2150812224,2152731254,2153883090,2147773513,2480,-2,9,36853
1354210863,5805,61.2099990844726560,22.7544002532959000,36.3968009948730500,251.1876983642578000,-0.9064704179763794,22.7528800964355470,27.9956398010253900,90,138,59,58,52,13121,2147155885,2147785837,2147608137,2147454729,2151933083,2154431259,2155744036,2147992283,2304,-1,9,47964
1354210918,5805,59.0299987792968750,22.7576999664306640,36.3931007385253900,251.1074066162109400,-0.9478747844696045,22.7541503906250000,27.9986495971679700,89,142,56,58,51,13115,2147284891,2147983177,2147890614,2147473078,2155070336,2159809206,2162342829,2148693915,2216,-2,9,49896
1354210973,5803,56.8899993896484400,22.7569999694824220,36.3936004638671900,251.2429046630859400,-0.9946882724761963,22.7555904388427730,27.9920101165771500,86,144,58,58,51,13119,2147263707,2147939456,2147816374,2147466614,2154475766,2158421193,2160335597,2148518692,2133,-2,9,21208
1354211028,5804,54.6899986267089840,22.7576007843017580,36.3922004699707000,251.1562042236328000,-0.9745270013809204,22.7549705505371100,27.9960899353027340,86,143,57,55,51,13109,2147258221,2147926573,2147785069,2147469732,2154424310,2158015817,2159642230,2148498459,2159,-1,9,40491
1354211170,5806,50.3600006103515600,22.7584991455078120,36.3908996582031250,251.2160949707031200,-0.9895741939544678,22.7554397583007800,27.9933605194091800,86,146,58,58,51,13108,2147271670,2147919570,2147765878,2147476964,2154753673,2157991954,2159217353,2148555977,2144,-2,9,17701
1354211228,5808,48.1100006103515600,22.7600002288818360,36.3899993896484400,251.2342987060547000,-1.0548770427703857,22.7574501037597660,27.9917392730712900,86,140,59,57,50,13104,2147314276,2147971154,2147824466,2147483172,2155773522,2159324900,2160539666,2148797458,2060,-1,9,36230
1354211261,5802,46.3600006103515600,22.7619991302490230,36.3890991210937500,251.1340942382812500,-1.1135909557342530,22.7592506408691400,27.9953308105468750,86,146,57,58,50,13100,2147344530,2148010596,2147869860,2147492288,2156544128,2160301714,2161512521,2148982756,2006,-2,9,11195
1354211294,5808,44.4199981689453100,22.7633991241455080,36.3875999450683600,251.3567047119140600,-1.1621739864349365,22.7607498168945300,27.9852294921875000,86,142,57,58,52,13096,2147400822,2148082267,2147959872,2147503789,2157939620,2162178605,2163456073,2149326985,1975,-2,9,34653
1354211327,5809,42.4300003051757800,22.7651996612548830,36.3871994018554700,251.4465942382812500,-1.2379020452499390,22.7630805969238280,27.9803791046142580,84,147,57,58,50,13092,2147432137,2148114331,2147994998,2147513444,2158664612,2163055104,2164292086,2149509403,1971,-1,9,15755
1354211360,5806,40.4000015258789060,22.7651004791259770,36.3866996765136700,251.1755981445312500,-1.2951400279998780,22.7648506164550780,27.9913406372070300,85,148,57,58,51,13094,2147456758,2148131547,2148010477,2147524480,2159236690,2163514212,2164510930,2149659382,1948,-2,9,55769
1354211393,5804,38.2900009155273440,22.7679004669189450,36.3860015869140600,251.3632049560547000,-1.3532639741897583,22.7666397094726560,27.9824600219726560,84,145,58,57,50,13091,2147502802,2148178898,2148059730,2147536621,2160351158,2164758747,2165593014,2149934070,2069,-2,9,52313
1354211426,5806,36.1399993896484400,22.7644004821777340,36.3866996765136700,251.4136047363281200,-1.3089090585708618,22.7652702331542970,27.9809799194335940,84,144,57,58,51,13085,2147566180,2148251099,2148131748,2147552054,2161935314,2166594870,2167247817,2150357321,2076,-2,9,54406
1354211459,5803,33.9500007629394500,22.7791996002197270,36.3841018676757800,251.2335052490234400,-1.6727950572967530,22.7764797210693360,27.9841403961181640,83,148,57,56,51,13082,2147637120,2148324982,2148208941,2147573467,2163702555,2168618294,2169058276,2150831597,2273,-2,9,13246
1354211492,5807,31.8500003814697270,22.7749004364013670,36.3848991394043000,251.3688049316406200,-1.6866619586944580,22.7769107818603500,27.9783000946044920,84,145,58,58,50,13082,2147725248,2148410212,2148298304,2147601289,2165784722,2170992713,2171177005,2151420141,2323,-2,9,6160
1354211527,5805,29.6000003814697270,22.7798004150390620,36.3838996887207000,251.3247070312500000,-1.7667169570922852,22.7793693542480470,27.9790191650390620,83,153,57,57,52,13084,2147830500,2148520521,2148417965,2147633353,2168383085,2173988708,2173895250,2152171529,2145,-1,9,41747
1354211560,5806,27.5599994659423830,22.7796993255615230,36.3847007751464840,251.3533020019531200,-1.7928780317306519,22.7801799774169920,27.9775199890136720,82,144,59,58,50,13078,2147934637,2148624109,2148523126,2147671478,2170998720,2176829037,2176343177,2153018953,2059,-1,8,15539
1354211593,5807,25.5900001525878900,22.7798004150390620,36.3843994140625000,251.2485046386718800,-1.7875670194625854,22.7800102233886720,27.9821300506591800,83,146,58,57,50,13077,2148054244,2148741595,2148650532,2147708973,2173933046,2180109723,2179276681,2153948982,2032,-2,9,52075
